Madison, MN

1:39 AM CDT on August 27, 2016 (GMT -0500)
Madison-Lac Qui Parle County

Weather History for KDXX - March, 2014

Change the Weather History Date:

Friday, March 21, 2014

  Actual Average (KAQP) Record (KAQP)
Temperature  
Mean Temperature 32 °F -  
Max Temperature 42 °F 37 °F 66 °F (2012)
Min Temperature 21 °F 19 °F -5 °F (2013)
Degree Days  
Heating Degree Days 34    
Moisture  
Dew Point 29 °F    
Average Humidity 80    
Maximum Humidity 93    
Minimum Humidity 69    
Precipitation  
Precipitation 0.00 in - - ()
Sea Level Pressure  
Sea Level Pressure 29.94 in    
Wind  
Wind Speed 15 mph (NNW)    
Max Wind Speed 33 mph    
Max Gust Speed 40 mph    
Visibility 10 miles    
Events      
Averages and records for this station are not official NWS values.
T = Trace of Precipitation, MM = Missing Value Source: NWS Daily Summary

Daily Weather History Graph

Daily Weather History Graph

Search for Another Location

Airport or City:

Trip Planner

Search our weather history database for the weather conditions in past years. The results will help you decide how hot, cold, wet, or windy it might be!

Date:

Astronomy

Mar. 21, 2014 Rise Set
Actual Time 7:25 AM CDT 7:38 PM CDT
Civil Twilight 6:56 AM CDT 8:07 PM CDT
Nautical Twilight 6:22 AM CDT 8:42 PM CDT
Astronomical Twilight 5:46 AM CDT 9:17 PM CDT
Moon 12:09 AM CDT (3/21) 10:06 AM CDT (3/21)
Length of Visible Light 13h 11m
Length of Day
12h 12m
Waning Gibbous, 75% of the Moon is Illuminated
Mar 21
Waning Gibbous
Mar 23
Last Quarter
Mar 30
New
Apr 7
First Quarter
Apr 15
Full

Hourly Weather History & Observations

Time (CDT) Temp. Windchill Dew Point Humidity Pressure Visibility Wind Dir Wind Speed Gust Speed Precip Events Conditions
12:13 AM 39.2 °F 31.2 °F 35.6 °F 87% 29.75 in 10.0 mi SSE 13.8 mph - N/A   Clear
12:34 AM 39.2 °F 31.2 °F 35.6 °F 87% 29.75 in 10.0 mi SSE 13.8 mph - N/A   Mostly Cloudy
12:54 AM 39.2 °F 31.2 °F 35.6 °F 87% 29.74 in 10.0 mi SSE 13.8 mph - N/A   Scattered Clouds
1:13 AM 39.2 °F 33.0 °F 35.6 °F 87% 29.75 in 10.0 mi SSE 9.2 mph - N/A   Clear
1:34 AM 39.2 °F 33.0 °F 35.6 °F 87% 29.74 in 10.0 mi SE 9.2 mph - N/A   Clear
1:54 AM 39.2 °F 34.2 °F 35.6 °F 87% 29.75 in 10.0 mi SE 6.9 mph - N/A   Clear
2:13 AM 39.2 °F 32.5 °F 35.6 °F 87% 29.74 in 10.0 mi SE 10.4 mph - N/A   Clear
2:34 AM 39.2 °F 32.0 °F 33.8 °F 81% 29.73 in 10.0 mi ESE 11.5 mph 16.1 mph N/A   Scattered Clouds
2:53 AM 39.2 °F 37.0 °F 33.8 °F 81% 29.75 in 10.0 mi NE 3.5 mph - N/A   Scattered Clouds
3:14 AM 39.2 °F 35.9 °F 33.8 °F 81% 29.79 in 10.0 mi NNW 4.6 mph - N/A   Scattered Clouds
3:33 AM 37.4 °F - 33.8 °F 87% 29.78 in 10.0 mi Calm Calm - N/A   Scattered Clouds
3:53 AM 37.4 °F 32.1 °F 33.8 °F 87% 29.74 in 10.0 mi ESE 6.9 mph - N/A   Scattered Clouds
4:14 AM 37.4 °F 31.4 °F 33.8 °F 87% 29.73 in 10.0 mi SE 8.1 mph - N/A   Scattered Clouds
4:33 AM 37.4 °F 34.9 °F 33.8 °F 87% 29.73 in 10.0 mi SSE 3.5 mph - N/A   Scattered Clouds
4:54 AM 37.4 °F 32.8 °F 33.8 °F 87% 29.73 in 10.0 mi South 5.8 mph - N/A   Scattered Clouds
5:14 AM 37.4 °F 31.4 °F 33.8 °F 87% 29.70 in 10.0 mi SSE 8.1 mph - N/A   Scattered Clouds
5:33 AM 37.4 °F 31.4 °F 33.8 °F 87% 29.70 in 10.0 mi South 8.1 mph - N/A   Scattered Clouds
5:54 AM 37.4 °F 32.1 °F 33.8 °F 87% 29.70 in 10.0 mi SSW 6.9 mph - N/A   Overcast
6:14 AM 39.2 °F 35.9 °F 33.8 °F 81% 29.71 in 10.0 mi SW 4.6 mph - N/A   Overcast
6:33 AM 39.2 °F 34.2 °F 33.8 °F 81% 29.71 in 10.0 mi SW 6.9 mph - N/A   Overcast
6:54 AM 39.2 °F 35.0 °F 33.8 °F 81% 29.72 in 10.0 mi West 5.8 mph - N/A   Scattered Clouds
7:14 AM 37.4 °F 32.8 °F 33.8 °F 87% 29.72 in 10.0 mi West 5.8 mph - N/A   Mostly Cloudy
7:33 AM 37.4 °F 32.1 °F 33.8 °F 87% 29.73 in 10.0 mi West 6.9 mph - N/A   Scattered Clouds
7:54 AM 37.4 °F 32.8 °F 35.6 °F 93% 29.74 in 10.0 mi West 5.8 mph - N/A   Clear
8:14 AM 37.4 °F 33.8 °F 35.6 °F 93% 29.74 in 10.0 mi WSW 4.6 mph - N/A   Scattered Clouds
8:33 AM 39.2 °F 33.6 °F 35.6 °F 87% 29.74 in 10.0 mi West 8.1 mph - N/A   Clear
8:54 AM 42.8 °F 36.6 °F 37.4 °F 81% 29.75 in 10.0 mi West 11.5 mph - N/A   Scattered Clouds
9:14 AM 42.8 °F 36.6 °F 37.4 °F 81% 29.76 in 10.0 mi WNW 11.5 mph - N/A   Scattered Clouds
9:33 AM 42.8 °F 34.3 °F 35.6 °F 76% 29.77 in 10.0 mi NNW 19.6 mph 28.8 mph N/A   Scattered Clouds
9:54 AM 39.2 °F 29.8 °F 35.6 °F 87% 29.79 in 7.0 mi NNW 18.4 mph 27.6 mph N/A   Scattered Clouds
10:14 AM 39.2 °F 29.3 °F 35.6 °F 87% 29.80 in 10.0 mi NW 20.7 mph 27.6 mph N/A   Scattered Clouds
10:33 AM 39.2 °F 29.3 °F 35.6 °F 87% 29.81 in 10.0 mi NW 20.7 mph 28.8 mph N/A   Scattered Clouds
10:54 AM 37.4 °F 25.9 °F 35.6 °F 93% 29.82 in 10.0 mi NNW 25.3 mph 35.7 mph N/A   Scattered Clouds
11:14 AM 39.2 °F 28.7 °F 33.8 °F 81% 29.84 in 10.0 mi NNW 23.0 mph 36.8 mph N/A   Scattered Clouds
11:33 AM 37.4 °F 25.9 °F 33.8 °F 87% 29.85 in 10.0 mi NNW 25.3 mph 33.4 mph N/A   Overcast
11:54 AM 37.4 °F 25.4 °F 32.0 °F 81% 29.87 in 10.0 mi NNW 27.6 mph 38.0 mph N/A   Mostly Cloudy
12:14 PM 35.6 °F 22.7 °F 30.2 °F 81% 29.89 in 10.0 mi NNW 28.8 mph 39.1 mph N/A   Mostly Cloudy
12:33 PM 35.6 °F 23.0 °F 30.2 °F 81% 29.91 in 10.0 mi NNW 27.6 mph 34.5 mph N/A   Mostly Cloudy
12:54 PM 35.6 °F 24.0 °F 30.2 °F 81% 29.93 in 10.0 mi NNW 23.0 mph 34.5 mph N/A   Mostly Cloudy
1:14 PM 35.6 °F 23.7 °F 28.4 °F 75% 29.95 in 10.0 mi NNW 24.2 mph 34.5 mph N/A   Mostly Cloudy
1:33 PM 35.6 °F 25.2 °F 30.2 °F 81% 29.95 in 10.0 mi NNW 18.4 mph 28.8 mph N/A   Scattered Clouds
1:54 PM 37.4 °F 24.8 °F 30.2 °F 75% 29.96 in 10.0 mi NNW 31.1 mph 39.1 mph N/A   Mostly Cloudy
2:14 PM 39.2 °F 28.7 °F 30.2 °F 70% 29.97 in 10.0 mi NNW 23.0 mph 34.5 mph N/A   Scattered Clouds
2:33 PM 37.4 °F 24.8 °F 30.2 °F 75% 29.99 in 10.0 mi NNW 31.1 mph 34.5 mph N/A   Scattered Clouds
2:54 PM 37.4 °F 24.8 °F 28.4 °F 70% 30.00 in 10.0 mi NNW 31.1 mph 39.1 mph N/A   Mostly Cloudy
3:13 PM 35.6 °F 22.3 °F 26.6 °F 70% 30.02 in 10.0 mi NNW 31.1 mph 39.1 mph N/A   Mostly Cloudy
3:33 PM 35.6 °F 22.5 °F 26.6 °F 70% 30.03 in 10.0 mi NNW 29.9 mph 38.0 mph N/A   Overcast
3:54 PM 33.8 °F 19.4 °F 26.6 °F 75% 30.05 in 10.0 mi NNW 33.4 mph 40.3 mph N/A   Mostly Cloudy
4:13 PM 33.8 °F 20.3 °F 26.6 °F 75% 30.07 in 10.0 mi NNW 28.8 mph 38.0 mph N/A   Overcast
4:33 PM 32.0 °F 17.2 °F 24.8 °F 75% 30.07 in 10.0 mi NNW 32.2 mph 40.3 mph N/A   Overcast
4:54 PM 32.0 °F 17.6 °F 24.8 °F 75% 30.09 in 10.0 mi NNW 29.9 mph 34.5 mph N/A   Overcast
5:13 PM 30.2 °F 16.5 °F 24.8 °F 80% 30.10 in 10.0 mi North 24.2 mph 32.2 mph N/A   Overcast
5:33 PM 30.2 °F 15.7 °F 24.8 °F 80% 30.11 in 10.0 mi NNW 27.6 mph 32.2 mph N/A   Overcast
5:54 PM 30.2 °F 15.9 °F 23.0 °F 75% 30.13 in 10.0 mi NNW 26.5 mph 35.7 mph N/A   Overcast
6:13 PM 30.2 °F 16.5 °F 23.0 °F 75% 30.13 in 10.0 mi North 24.2 mph 33.4 mph N/A   Overcast
6:33 PM 30.2 °F 14.9 °F 21.2 °F 69% 30.14 in 10.0 mi NNW 31.1 mph 34.5 mph N/A   Mostly Cloudy
6:54 PM 28.4 °F 15.1 °F 21.2 °F 74% 30.15 in 10.0 mi North 20.7 mph 33.4 mph N/A   Scattered Clouds
7:13 PM 28.4 °F 13.8 °F 21.2 °F 74% 30.17 in 10.0 mi NNW 25.3 mph 29.9 mph N/A   Scattered Clouds
7:33 PM 28.4 °F 14.4 °F 19.4 °F 69% 30.18 in 10.0 mi North 23.0 mph 27.6 mph N/A   Scattered Clouds
7:54 PM 26.6 °F 12.7 °F 19.4 °F 74% 30.20 in 10.0 mi North 20.7 mph 31.1 mph N/A   Clear
8:13 PM 26.6 °F 12.0 °F 19.4 °F 74% 30.21 in 10.0 mi NNW 23.0 mph 33.4 mph N/A   Clear
8:33 PM 26.6 °F 11.4 °F 17.6 °F 69% 30.23 in 10.0 mi NNW 25.3 mph 28.8 mph N/A   Clear
8:54 PM 24.8 °F 9.0 °F 17.6 °F 74% 30.24 in 10.0 mi North 25.3 mph - N/A   Clear
9:13 PM 24.8 °F 10.0 °F 17.6 °F 74% 30.26 in 10.0 mi North 21.9 mph 29.9 mph N/A   Clear
9:33 PM 24.8 °F 10.7 °F 17.6 °F 74% 30.27 in 10.0 mi NNW 19.6 mph 28.8 mph N/A   Clear
9:54 PM 23.0 °F 7.6 °F 17.6 °F 80% 30.29 in 10.0 mi North 21.9 mph 26.5 mph N/A   Clear
10:13 PM 23.0 °F 8.3 °F 15.8 °F 74% 30.30 in 10.0 mi NNW 19.6 mph 24.2 mph N/A   Clear
10:33 PM 23.0 °F 7.6 °F 15.8 °F 74% 30.30 in 10.0 mi NNW 21.9 mph 25.3 mph N/A   Clear
10:54 PM 21.2 °F 5.6 °F 15.8 °F 80% 30.30 in 10.0 mi North 20.7 mph - N/A   Clear
11:13 PM 21.2 °F 7.3 °F 15.8 °F 80% 30.32 in 10.0 mi NNW 16.1 mph 23.0 mph N/A   Clear
11:33 PM 21.2 °F 6.8 °F 15.8 °F 80% 30.33 in 10.0 mi NNW 17.3 mph - N/A   Clear
11:54 PM 21.2 °F 6.8 °F 15.8 °F 80% 30.33 in 10.0 mi NNW 17.3 mph - N/A   Clear